User: anonymous   Login
Location: Petruro
(41.0333°N, 14.7833°E)
Time: 20:12:08
(UTC+00:00)
Language:

METEOR 2-5 DEB - Orbit

View from above orbital plane
View from above orbital plane
View from above satellite
View from above satellite

Ground track
Ground track

The orbit data is extracted from the following two-line orbital elements,

1 35256U 79095X   22016.47151889  .00000899  00000-0  40655-3 0  9994
2 35256  81.1937 294.3717 0013393 248.9525 111.0220 14.21318245722042
Epoch (UTC): 16 January 2022 11:18:59
Eccentricity: 0.0013393
inclination: 81.1937°
perigee height: 811 km
apogee height: 830 km
right ascension of ascending node: 294.3717°
argument of perigee: 248.9525°
revolutions per day: 14.21318245
mean anomaly at epoch: 111.0220°
orbit number at epoch: 72204

The dashed part of the orbit path shows where the satellite is in the earth's shadow,  

DLR